Weather History for Cut Bank, MT

Change the Weather History Date:

Thursday, April 24, 2014

  Actual Average Record
Temperature  
Mean Temperature 43 °F 43 °F  
Max Temperature 57 °F 56 °F 84 °F (1910)
Min Temperature 29 °F 31 °F 5 °F (2009)
Degree Days  
Heating Degree Days 22 22  
Month to date heating degree days 561 597  
Since 1 July heating degree days 7989 7695  
Cooling Degree Days 0 0  
Month to date cooling degree days 0 0  
Year to date cooling degree days 0 0  
Moisture  
Dew Point 27 °F    
Average Humidity 54    
Maximum Humidity 72    
Minimum Humidity 35    
Precipitation  
Precipitation 0.00 in 0.04 in 0.86 in (1994)
Month to date precipitation 0.71 0.58  
Year to date precipitation 2.63 1.49  
Snow  
Snow 0.00 in - - ()
Snow Depth 0.00 in    
Sea Level Pressure  
Sea Level Pressure 29.75 in    
Wind  
Wind Speed 16 mph (WSW)    
Max Wind Speed 26 mph    
Max Gust Speed 32 mph    
Visibility 10 miles    
Events      
T = Trace of Precipitation, MM = Missing Value Source: NWS Daily Summary

Daily Weather History Graph

Daily Weather History Graph

Search for Another Location

Airport:

Trip Planner

Search our weather history database for the weather conditions in past years. The results will help you decide how hot, cold, wet, or windy it might be!

Date:

Astronomy

Apr. 24, 2014 Rise Set
Actual Time 6:21 AM MDT 8:34 PM MDT
Civil Twilight 5:47 AM MDT 9:08 PM MDT
Nautical Twilight 5:05 AM MDT 9:51 PM MDT
Astronomical Twilight 4:16 AM MDT 10:40 PM MDT
Moon 4:00 AM MDT (4/24) 3:31 PM MDT (4/24)
Length of Visible Light 15h 21m
Length of Day
14h 12m
Waning Crescent, 24% of the Moon is Illuminated
Apr 24
Waning Crescent
Apr 29
New
May 6
First Quarter
May 14
Full
May 21
Last Quarter

Hourly Weather History & Observations

Time (MDT) Temp. Windchill Dew Point Humidity Pressure Visibility Wind Dir Wind Speed Gust Speed Precip Events Conditions
12:56 AM 36.0 °F 25.3 °F 19.9 °F 52% 29.74 in 10.0 mi West 19.6 mph - N/A   Clear
1:56 AM 35.1 °F 23.5 °F 19.9 °F 54% 29.75 in 10.0 mi West 21.9 mph - N/A   Clear
2:56 AM 34.0 °F 23.0 °F 21.0 °F 59% 29.76 in 10.0 mi West 18.4 mph - N/A   Clear
3:56 AM 35.1 °F 24.8 °F 23.0 °F 61% 29.77 in 10.0 mi West 17.3 mph - N/A   Clear
4:56 AM 30.0 °F 21.7 °F 21.9 °F 72% 29.79 in 10.0 mi SSW 9.2 mph - N/A   Clear
5:56 AM 30.9 °F 22.2 °F 23.0 °F 72% 29.79 in 10.0 mi West 10.4 mph - N/A   Clear
6:56 AM 36.0 °F 28.5 °F 25.0 °F 64% 29.79 in 10.0 mi West 10.4 mph - N/A   Mostly Cloudy
7:56 AM 42.1 °F 34.5 °F 26.1 °F 53% 29.78 in 10.0 mi WSW 15.0 mph - N/A   Overcast
8:56 AM 45.0 °F 38.9 °F 27.0 °F 49% 29.77 in 10.0 mi West 12.7 mph - N/A   Clear
9:56 AM 48.9 °F - 28.0 °F 44% 29.75 in 10.0 mi SW 17.3 mph - N/A   Clear
10:56 AM 46.9 °F - 26.1 °F 44% 29.76 in 10.0 mi South 12.7 mph - N/A   Overcast
11:56 AM 48.9 °F - 27.0 °F 43% 29.74 in 10.0 mi South 10.4 mph - N/A   Overcast
12:56 PM 48.9 °F - 28.0 °F 44% 29.73 in 10.0 mi WSW 10.4 mph 17.3 mph N/A   Overcast
1:56 PM 51.1 °F - 28.9 °F 43% 29.72 in 10.0 mi WSW 12.7 mph - N/A   Overcast
2:56 PM 55.0 °F - 28.0 °F 35% 29.70 in 10.0 mi West 15.0 mph 21.9 mph N/A   Overcast
3:56 PM 55.9 °F - 30.0 °F 37% 29.69 in 10.0 mi West 23.0 mph 28.8 mph N/A   Overcast
4:56 PM 54.0 °F - 30.0 °F 40% 29.72 in 10.0 mi WSW 20.7 mph 29.9 mph N/A   Overcast
5:56 PM 50.0 °F - 30.0 °F 46% 29.74 in 10.0 mi WSW 20.7 mph - N/A   Mostly Cloudy
6:56 PM 50.0 °F - 28.9 °F 44% 29.74 in 10.0 mi WSW 19.6 mph 23.0 mph N/A   Clear
7:56 PM 48.0 °F - 30.0 °F 50% 29.73 in 10.0 mi WSW 17.3 mph - N/A   Clear
8:56 PM 45.0 °F 38.5 °F 30.9 °F 58% 29.74 in 10.0 mi WSW 13.8 mph - N/A   Clear
9:56 PM 45.0 °F 37.4 °F 32.0 °F 60% 29.74 in 10.0 mi WSW 18.4 mph - N/A   Overcast
10:56 PM 43.0 °F 34.5 °F 30.9 °F 62% 29.74 in 10.0 mi WSW 19.6 mph - N/A   Clear
11:56 PM 41.0 °F 31.6 °F 30.9 °F 67% 29.74 in 10.0 mi WSW 20.7 mph 26.5 mph N/A   Clear